Weather History for Keokuk, IA

Change the Weather History Date:

Monday, March 18, 2013

  Actual Average Record
Temperature  
Mean Temperature 39 °F -  
Max Temperature 48 °F 52 °F 80 °F (2012)
Min Temperature 30 °F 32 °F 13 °F (1965)
Degree Days  
Heating Degree Days 26    
Moisture  
Dew Point 25 °F    
Average Humidity 62    
Maximum Humidity 81    
Minimum Humidity 31    
Precipitation  
Precipitation 0.02 in - - ()
Sea Level Pressure  
Sea Level Pressure 29.80 in    
Wind  
Wind Speed 10 mph (WNW)    
Max Wind Speed 32 mph    
Max Gust Speed 44 mph    
Visibility 7 miles    
Events Rain , Snow    
Averages and records for this station are not official NWS values.
T = Trace of Precipitation, MM = Missing Value Source: NWS Daily Summary

Daily Weather History Graph

Daily Weather History Graph

Search for Another Location

Airport:

Trip Planner

Search our weather history database for the weather conditions in past years. The results will help you decide how hot, cold, wet, or windy it might be!

Date:

Astronomy

Mar. 18, 2013 Rise Set
Actual Time 7:11 AM CDT 7:15 PM CDT
Civil Twilight 6:44 AM CDT 7:43 PM CDT
Nautical Twilight 6:13 AM CDT 8:15 PM CDT
Astronomical Twilight 5:40 AM CDT 8:47 PM CDT
Moon 11:10 AM CDT (3/18) 1:16 AM CDT (3/18)
Length of Visible Light 12h 58m
Length of Day
12h 04m
Waxing Crescent, 41% of the Moon is Illuminated
Mar 18
Waxing Crescent
Mar 19
First Quarter
Mar 27
Full
Apr 2
Last Quarter
Apr 10
New

Hourly Weather History & Observations

Time (CDT) Temp. Windchill Dew Point Humidity Pressure Visibility Wind Dir Wind Speed Gust Speed Precip Events Conditions
12:15 AM 35.6 °F 28.0 °F 28.4 °F 75% 29.84 in 7.0 mi East 10.4 mph - N/A   Overcast
12:35 AM 35.6 °F 28.6 °F 28.4 °F 75% 29.82 in 7.0 mi East 9.2 mph - N/A Snow Light Snow
12:55 AM 35.6 °F 28.0 °F 28.4 °F 75% 29.81 in 7.0 mi East 10.4 mph - N/A   Light Drizzle
1:15 AM 35.6 °F 28.6 °F 28.4 °F 75% 29.80 in 10.0 mi ENE 9.2 mph - N/A   Overcast
1:35 AM 35.6 °F 29.2 °F 28.4 °F 75% 29.80 in 10.0 mi East 8.1 mph - N/A   Overcast
1:55 AM 35.6 °F 29.2 °F 28.4 °F 75% 29.80 in 10.0 mi ENE 8.1 mph - N/A   Overcast
2:15 AM 37.4 °F 31.4 °F 28.4 °F 70% 29.79 in 10.0 mi East 8.1 mph - N/A   Overcast
2:35 AM 37.4 °F 32.1 °F 28.4 °F 70% 29.79 in 10.0 mi East 6.9 mph - N/A   Overcast
2:55 AM 37.4 °F 31.4 °F 28.4 °F 70% 29.78 in 7.0 mi ENE 8.1 mph - N/A   Overcast
3:15 AM 35.6 °F 28.6 °F 28.4 °F 75% 29.77 in 7.0 mi East 9.2 mph - N/A   Overcast
3:35 AM 35.6 °F 29.9 °F 28.4 °F 75% 29.76 in 3.0 mi East 6.9 mph - N/A   Haze
3:55 AM 35.6 °F 29.9 °F 28.4 °F 75% 29.76 in 2.0 mi East 6.9 mph - N/A   Haze
4:15 AM 35.6 °F 29.9 °F 28.4 °F 75% 29.75 in 2.0 mi East 6.9 mph - N/A   Haze
4:35 AM 35.6 °F 29.9 °F 28.4 °F 75% 29.74 in 2.0 mi East 6.9 mph - N/A   Light Drizzle
4:55 AM 35.6 °F - 28.4 °F 75% 29.74 in 2.0 mi Calm Calm - N/A   Light Drizzle
5:15 AM 35.6 °F - 28.4 °F 75% 29.73 in 1.8 mi Calm Calm - N/A   Light Drizzle
5:35 AM 35.6 °F 32.8 °F 28.4 °F 75% 29.73 in 1.8 mi East 3.5 mph - N/A   Haze
5:55 AM 35.6 °F - 28.4 °F 75% 29.72 in 2.0 mi Calm Calm - N/A   Haze
6:15 AM 35.6 °F 32.8 °F 28.4 °F 75% 29.72 in 2.0 mi ENE 3.5 mph - 0.01 in   Haze
6:35 AM 35.6 °F - 28.4 °F 75% 29.73 in 2.5 mi Calm Calm - 0.01 in Rain Light Rain
6:55 AM 35.6 °F - 28.4 °F 75% 29.73 in 2.5 mi Calm Calm - 0.01 in   Haze
7:15 AM 35.6 °F - 28.4 °F 75% 29.73 in 2.0 mi Calm Calm - N/A   Haze
7:35 AM 35.6 °F - 28.4 °F 75% 29.75 in 2.0 mi Calm Calm - N/A   Haze
7:55 AM 35.6 °F - 28.4 °F 75% 29.74 in 2.5 mi Calm Calm - N/A   Haze
8:15 AM 35.6 °F - 28.4 °F 75% 29.74 in 1.0 mi Calm Calm - N/A   Haze
8:35 AM 35.6 °F - 28.4 °F 75% 29.73 in 0.8 mi Calm Calm - N/A   Haze
8:55 AM 35.6 °F - 28.4 °F 75% 29.73 in 1.0 mi Calm Calm - N/A   Haze
9:15 AM 35.6 °F - 28.4 °F 75% 29.73 in 1.2 mi Calm Calm - N/A   Haze
9:35 AM 35.6 °F 32.8 °F 28.4 °F 75% 29.73 in 1.0 mi WNW 3.5 mph - N/A   Haze
9:55 AM 35.6 °F 30.7 °F 30.2 °F 81% 29.74 in 1.0 mi West 5.8 mph - N/A   Light Drizzle
10:15 AM 37.4 °F 31.4 °F 30.2 °F 75% 29.74 in 1.2 mi West 8.1 mph - N/A Rain Light Rain
10:35 AM 37.4 °F 32.1 °F 30.2 °F 75% 29.73 in 2.5 mi West 6.9 mph - N/A Rain Light Rain
10:55 AM 37.4 °F 30.8 °F 30.2 °F 75% 29.74 in 7.0 mi West 9.2 mph - 0.01 in   Overcast
11:15 AM 39.2 °F 32.5 °F 32.0 °F 75% 29.74 in 7.0 mi West 10.4 mph - N/A   Overcast
11:35 AM 39.2 °F 32.0 °F 32.0 °F 75% 29.74 in 10.0 mi West 11.5 mph 17.3 mph N/A   Overcast
11:55 AM 39.2 °F 31.6 °F 32.0 °F 75% 29.73 in 7.0 mi West 12.7 mph - N/A   Overcast
12:15 PM 41.0 °F 33.5 °F 33.8 °F 76% 29.73 in 10.0 mi West 13.8 mph 21.9 mph N/A   Overcast
12:35 PM 42.8 °F 35.8 °F 33.8 °F 70% 29.74 in 10.0 mi West 13.8 mph 20.7 mph N/A   Overcast
12:55 PM 42.8 °F 34.3 °F 32.0 °F 66% 29.74 in 10.0 mi WNW 19.6 mph 25.3 mph N/A   Overcast
1:15 PM 42.8 °F 33.5 °F 32.0 °F 66% 29.75 in 10.0 mi West 23.0 mph 27.6 mph N/A   Overcast
1:35 PM 42.8 °F 34.3 °F 32.0 °F 66% 29.75 in 10.0 mi West 19.6 mph 26.5 mph N/A   Overcast
1:55 PM 44.6 °F 36.9 °F 32.0 °F 61% 29.75 in 10.0 mi West 18.4 mph - N/A   Mostly Cloudy
2:15 PM 46.4 °F 39.2 °F 32.0 °F 57% 29.75 in 10.0 mi West 18.4 mph 27.6 mph N/A   Mostly Cloudy
2:35 PM 48.2 °F - 28.4 °F 46% 29.74 in 10.0 mi West 24.2 mph 31.1 mph N/A   Scattered Clouds
2:55 PM 48.2 °F - 28.4 °F 46% 29.74 in 10.0 mi West 18.4 mph 26.5 mph N/A   Scattered Clouds
3:15 PM 48.2 °F - 21.2 °F 34% 29.75 in 10.0 mi WNW 28.8 mph 35.7 mph N/A   Scattered Clouds
3:35 PM 46.4 °F 38.1 °F 21.2 °F 37% 29.76 in 10.0 mi WNW 24.2 mph 32.2 mph N/A   Clear
3:55 PM 46.4 °F 38.7 °F 21.2 °F 37% 29.77 in 10.0 mi WNW 20.7 mph 34.5 mph N/A   Scattered Clouds
4:15 PM 44.6 °F 34.4 °F 15.8 °F 31% 29.78 in 10.0 mi West 32.2 mph 42.6 mph N/A   Scattered Clouds
4:35 PM 44.6 °F 35.1 °F 17.6 °F 34% 29.79 in 10.0 mi WNW 27.6 mph 38.0 mph N/A   Scattered Clouds
4:55 PM 44.6 °F 35.7 °F 17.6 °F 34% 29.80 in 10.0 mi West 24.2 mph 39.1 mph N/A   Scattered Clouds
5:15 PM 42.8 °F 33.5 °F 17.6 °F 36% 29.81 in 10.0 mi WNW 23.0 mph 41.4 mph N/A   Scattered Clouds
5:35 PM 42.8 °F 33.3 °F 15.8 °F 34% 29.82 in 10.0 mi WNW 24.2 mph 43.7 mph N/A   Scattered Clouds
5:55 PM 42.8 °F 34.0 °F 17.6 °F 36% 29.83 in 10.0 mi West 20.7 mph 35.7 mph N/A   Scattered Clouds
6:15 PM 41.0 °F 32.2 °F 17.6 °F 39% 29.85 in 10.0 mi WNW 18.4 mph 27.6 mph N/A   Mostly Cloudy
6:35 PM 39.2 °F 29.0 °F 17.6 °F 42% 29.86 in 10.0 mi WNW 21.9 mph 28.8 mph N/A   Mostly Cloudy
6:55 PM 37.4 °F 27.5 °F 17.6 °F 45% 29.87 in 10.0 mi WNW 18.4 mph 26.5 mph N/A   Mostly Cloudy
7:15 PM 35.6 °F 23.2 °F 17.6 °F 48% 29.89 in 10.0 mi WNW 26.5 mph 35.7 mph N/A   Mostly Cloudy
7:35 PM 35.6 °F 24.5 °F 17.6 °F 48% 29.90 in 10.0 mi WNW 20.7 mph 27.6 mph N/A   Scattered Clouds
7:55 PM 33.8 °F 22.2 °F 15.8 °F 48% 29.91 in 10.0 mi WNW 20.7 mph 28.8 mph N/A   Scattered Clouds
8:15 PM 33.8 °F 23.9 °F 15.8 °F 48% 29.92 in 10.0 mi NW 15.0 mph 26.5 mph N/A   Scattered Clouds
8:35 PM 33.8 °F 22.8 °F 15.8 °F 48% 29.93 in 10.0 mi WNW 18.4 mph 26.5 mph N/A   Clear
8:55 PM 33.8 °F 22.8 °F 15.8 °F 48% 29.94 in 10.0 mi WNW 18.4 mph 24.2 mph N/A   Clear
9:15 PM 32.0 °F 21.6 °F 15.8 °F 51% 29.95 in 10.0 mi WNW 15.0 mph 21.9 mph N/A   Clear
9:35 PM 32.0 °F 20.1 °F 14.0 °F 48% 29.96 in 10.0 mi WNW 19.6 mph 26.5 mph N/A   Clear
9:55 PM 30.2 °F 18.9 °F 15.8 °F 55% 29.97 in 10.0 mi WNW 16.1 mph 23.0 mph N/A   Clear
10:15 PM 30.2 °F 18.9 °F 14.0 °F 51% 29.97 in 10.0 mi WNW 16.1 mph 23.0 mph N/A   Clear
11:15 PM 30.2 °F 20.8 °F 15.8 °F 55% 29.98 in 10.0 mi West 11.5 mph - N/A   Clear
11:35 PM 30.2 °F 21.3 °F 15.8 °F 55% 29.98 in 10.0 mi West 10.4 mph - N/A   Clear
11:55 PM 30.2 °F 21.3 °F 15.8 °F 55% 29.98 in 10.0 mi West 10.4 mph - N/A   Clear